Home   Weather   Passaic   Past weeks
Flag for USA

Past Weather in Passaic, New Jersey, USA — Yesterday and Last 2 Weeks

Now
33 °F

Clear.


Feels Like: 28 °F
Forecast: 42 / 20 °F
Wind: 6 mph from North

Location: Teterboro Airport

Current Time: Dec 7, 2019 at 8:01:24 pm

Latest Report: Dec 7, 2019 at 6:51 pm


Visibility: 10 mi

Pressure: 30.45 "Hg

Humidity: 48%

Dew Point: 15 °F

Location of PassaicLocation

Past Weather in Passaic — Graph

°F

Passaic Temperature Yesterday

Maximum temperature yesterday: 51 °F (at 3:51 pm)
Minimum temperature yesterday: 32 °F (at 4:51 am)
Average temperature yesterday: 41 °F

High & Low Weather Summary for the Past Weeks

 TemperatureHumidityPressure
High61 °F (Nov 26, 2:51 pm)100% (Nov 23, 11:51 pm)30.45 "Hg (Nov 23, 11:51 pm)
Low24 °F (Nov 29, 9:51 pm)26% (Nov 30, 12:51 pm)29.25 "Hg (Nov 24, 11:51 am)
Average39 °F69%29.82 "Hg
* Reported Nov 22 6:51 pm — Dec 7 6:51 pm, Passaic. Weather by CustomWeather, © 2019

Note: Actual official high and low records may vary slightly from our data, if they occured in-between our weather recording intervals... More about our weather records

Passaic Weather History for the Previous 24 Hours

Scroll right to see more
 ConditionsComfort  
Time TempWeatherWind HumidityBarometerVisibility
6:51 pm
Sat, Dec 7
33 °FClear.6 mph48%30.45 "Hg10 mi
5:51 pm35 °FClear.7 mph42%30.43 "Hg10 mi
4:51 pm35 °FClear.7 mph44%30.40 "Hg10 mi
3:51 pm37 °FSunny.12 mph39%30.37 "Hg10 mi
2:51 pm39 °FSunny.12 mph38%30.36 "Hg10 mi
1:51 pm39 °FSunny.15 mph38%30.35 "Hg10 mi
12:51 pm38 °FSunny.10 mph39%30.36 "Hg10 mi
11:51 am37 °FSunny.14 mph41%30.36 "Hg10 mi
10:51 am37 °FSunny.12 mph44%30.37 "Hg10 mi
9:51 am36 °FSunny.15 mph46%30.37 "Hg10 mi
8:51 am34 °FSunny.10 mph54%30.36 "Hg10 mi
7:51 am32 °FSunny.3 mph59%30.34 "Hg10 mi
6:51 am32 °FClear.6 mph56%30.32 "Hg10 mi
5:51 am32 °FClear.9 mph56%30.29 "Hg10 mi
4:51 am32 °FClear.7 mph61%30.26 "Hg10 mi
3:51 am33 °FClear.8 mph61%30.24 "Hg10 mi
2:51 am35 °FClear.12 mph56%30.21 "Hg10 mi
1:51 am36 °FClear.15 mph57%30.18 "Hg10 mi
12:51 am36 °FClear.12 mph54%30.16 "Hg10 mi
11:51 pm
Fri, Dec 6
37 °FClear.10 mph54%30.14 "Hg10 mi
10:51 pm38 °FClear.12 mph55%30.13 "Hg10 mi
9:51 pm41 °FPassing clouds.14 mph51%30.10 "Hg10 mi
8:51 pm43 °FClear.13 mph51%30.06 "Hg10 mi
Weather by CustomWeather, © 2019

See weather overview

Advertising